Tracking 29892 objects as of 21-Nov-2024
HD Live streaming from Space Station
objects crossing your sky now

STARLINK-5859

Track STARLINK-5859 now!
10-day predictions
STARLINK-5859 is classified as:


NORAD ID: 55915
Int'l Code: 2023-037B
Perigee: 576.9 km
Apogee: 581.5 km
Inclination: 70.0 °
Period: 96.1 minutes
Semi major axis: 6950 km
RCS: Unknown
Launch date: March 17, 2023
Source: United States (US)
Launch site: AIR FORCE WESTERN TEST RANGE (AFWTR)
Your satellite tracking list
Your tracking list is empty




NASA's NSSDC Master Catalog

Two Line Element Set (TLE):
1 55915U 23037B   24325.67865789 -.00000996  00000-0 -75672-4 0  9999
2 55915  70.0019  59.6582 0003315 259.6141 100.4644 14.98324305 93177
Source of the keplerian elements: AFSPC